Regional Weather Roundup
Issued by NWS

Home | Current Version | Previous Version | Graphics & Text | Print | Product List | Glossary On
Versions: 1 2 3 4 5 6 7 8 9 10 11 12 13 14 15 16 17 18 19 20 21 22 23 24 25 26 27 28 29 30 31 32 33 34 35 36 37 38 39 40 41 42 43 44 45 46 47 48 49 50
533
ASUS43 KMPX 271910
RWRMN
WEATHER ROUNDUP FOR MINNESOTA
NATIONAL WEATHER SERVICE TWIN CITIES/CHANHASSEN MN
200 PM CDT WED JUL 27 2016


NOTE: "FAIR" INDICATES FEW OR NO CLOUDS BELOW 12,000 FEET WITH NO
SIGNIFICANT WEATHER AND/OR OBSTRUCTIONS TO VISIBILITY. N/A MEANS
CURRENT SKY AND/OR WEATHER CONDITIONS ARE NOT AVAILABLE.

MNZ060>063-068>070-272000-
   Twin Cities Metro

CITY           SKY/WX    TMP DP  RH WIND       PRES   REMARKS
TWIN CITIES    TSTM      71  62  73 VRB5      29.94F
ST PAUL        TSTM      76  70  82 SW14      29.93F
CRYSTAL        CLOUDY    71  67  87 SE10G18   29.91F
BLAINE         TSTM      75  73  94 S13       29.92F
LAKEVILLE      PTSUNNY   77  70  78 S8G18     29.94F
EDEN PRAIRIE   CLOUDY    80  70  71 SW9       29.92F
LAKEVILLE      PTSUNNY   77  70  78 S8G18     29.94F
SOUTH ST PAUL  LGT RAIN  78  69  73 S8        29.92F
LAKE ELMO      FAIR      77  72  83 SE7       29.93F
$$
MNZ001>005-007-008-013>017-022>024-027-028-272000-
   Northwest Minnesota

CITY           SKY/WX    TMP DP  RH WIND       PRES   REMARKS
BEMIDJI        PTSUNNY   73  63  68 E9        30.04S
HALLOCK        MOSUNNY   75  57  53 N13       30.08S
ROSEAU         SUNNY     75  64  69 NE10      30.07R
WARROAD        SUNNY     75  63  64 NE10G17   30.08R
THIEF RVR FALL MOSUNNY   75  58  55 N9        30.06S
CROOKSTON      MOSUNNY   73  57  56 N13       30.06S
FOSSTON        SUNNY     75  55  50 NW9       30.05S
DETROIT LAKES  SUNNY     75  59  57 N14       30.05S
MOORHEAD       SUNNY     75  61  60 N15       30.05S
PARK RAPIDS    CLOUDY    73  61  65 N5        30.03S
MAHNOMEN       FAIR      76  58  52 N10       30.04S
$$
MNZ006-009>011-018-025>026-272000-
   North Central Minnesota

CITY           SKY/WX    TMP DP  RH WIND       PRES   REMARKS
BAUDETTE       CLOUDY    75  58  55 NE8       30.05S
FLAG ISLAND    MOSUNNY   72  57  60 N13       30.07S
INTL FALLS     MOSUNNY   75  56  51 NE8       30.05S
WASKISH        MOSUNNY   81  63  54 NE6       30.03S
BIG FORK       CLOUDY    72  61  68 E7        30.06R
LONGVILLE      CLOUDY    68  64  88 CALM      30.03S
GRAND RAPIDS   CLOUDY    68  60  75 VRB5      30.05F
CRANE LAKE     CLOUDY    70  59  68 VRB2      30.06F
ORR            CLOUDY    70  61  73 CALM      30.03S
COOK           CLOUDY    66  63  88 CALM      30.06S
WALKER         CLOUDY    68  63  83 NE3       30.03F
$$
MNZ012-019>021-037-272000-
   Northeast Minnesota

CITY           SKY/WX    TMP DP  RH WIND       PRES   REMARKS
DULUTH         LGT RAIN  65  56  72 NE12G21   30.03F
ELY            PTSUNNY   70  61  73 NE3       30.05S
HIBBING        LGT RAIN  64  61  90 E6        30.05S
EVELETH        LGT RAIN  63  60  90 E5        30.07S
DULUTH HARBOR  LGT RAIN  61  61 100 NE18      30.03R
TWO HARBORS    LGT RAIN  64  59  82 NE5       30.05S
SILVER BAY     RAIN      61  57  88 CALM      30.06S
G MARAIS ARPRT CLOUDY    70  54  56 N5        30.07S
$$
MNZ029>031-032-039>041-046>048-054>057-064-272000-
   West Central Minnesota

CITY           SKY/WX    TMP DP  RH WIND       PRES   REMARKS
FERGUS FALLS   SUNNY     77  63  61 N8G17     30.03F
WHEATON        MOSUNNY   79  66  65 N10G17    30.03F
MORRIS         MOSUNNY   79  66  65 NW10      30.00F
ALEXANDRIA     CLOUDY    76  62  62 N8        30.02F
ELBOW LAKE     FAIR      75  65  71 NE9       30.02F
WADENA         PTSUNNY   70  63  78 NE8       30.02F
GLENWOOD       MOSUNNY   73  64  73 NW8       30.01F
APPLETON       MOSUNNY   79  66  65 N13G18    29.99F
BENSON         MOSUNNY   79  64  61 N12G17    29.99S
ORTONVILLE     MOSUNNY   77  64  65 N12G18    30.02S
MADISON        MOSUNNY   79  64  61 NW13G18   30.00F
WILLMAR        FAIR      79  66  65 NW13      29.98F
$$
MNZ033>034-036-042>043-049>051-058-059-272000-
   Central Minnesota

CITY           SKY/WX    TMP DP  RH WIND       PRES   REMARKS
ST CLOUD       CLOUDY    73  69  87 N8        29.96S
SAUK CENTRE    MOCLDY    73  64  73 N6        29.99F
PAYNESVILLE    MOSUNNY   76  66  70 N5        29.97F
AITKIN         CLOUDY    68  63  83 E7        30.00F
PINE RIVER     PTSUNNY   70  64  83 N3        30.05F
BRAINERD       LGT RAIN  68  65  90 N7        30.01S
STAPLES        MOSUNNY   70  61  73 N6        30.02F
LONG PRAIRIE   CLOUDY    72  63  73 NW6       30.01F
LITTLE FALLS   PTSUNNY   72  63  73 N3        30.00F
LITCHFIELD     MOSUNNY   79  72  78 N8        29.96F
BUFFALO        LGT RAIN  69  65  86 SW5       29.96S
MAPLE LAKE     LGT RAIN  72  68  88 NW5       29.97R
HUTCHINSON     MOSUNNY   78  70  78 NW6       29.97F
$$
MNZ037-044-045-052-053-272000-
   East Central Minnesota

CITY           SKY/WX    TMP DP  RH WIND       PRES   REMARKS
PRINCETON      RAIN      70  66  88 NW10      29.95F
MORA           LGT RAIN  64  63  94 N7        29.99S
CAMBRIDGE      CLOUDY    68  61  77 N8        29.92F VSB 1
RUSH CITY      CLOUDY    67  63  88 NW12G25   29.96R THUNDER
MOOSE LAKE     LGT RAIN  63  61  94 NE10      30.00F
HINCKLEY       HVY RAIN  68  68 100 N16       29.97S
CLOQUET        DRIZZLE   64  57  77 E6        30.03F
MCGREGOR       CLOUDY    64  63  94 E9        30.02F
$$
MNZ071>073-080-081-089-090-097-098-272000-
   Southwest Minnesota

CITY           SKY/WX    TMP DP  RH WIND       PRES   REMARKS
MONTEVIDEO     MOSUNNY   81  68  65 N13       30.01S
GRANITE FALLS  MOSUNNY   81  67  62 NW7       30.00F
CANBY          MOSUNNY   78  65  63 NW10G16   30.02S
MARSHALL       MOSUNNY   78  66  66 N9        30.00S
REDWOOD FALLS  PTSUNNY   80  65  59 NW8       29.96F
OLIVIA         PTSUNNY   77  66  69 NW9       29.97F
PIPESTONE      MOSUNNY   79  63  57 N6        30.03F
WINDOM         MOSUNNY   79  68  69 N8        29.99F
WORTHINGTON    PTSUNNY   78  70  76 N9        30.01F
JACKSON        PTSUNNY   79  68  69 NW12      30.00S
TRACY          CLOUDY    78  69  73 N5        30.01S
SLAYTON        MOSUNNY   77  65  66 NW8       30.03F
$$
MNZ065>067-074>077-082>085-091>093-272000-
   South Central Minnesota

CITY           SKY/WX    TMP DP  RH WIND       PRES   REMARKS
MANKATO        MOSUNNY   81  66  61 SW10G16   29.96F
NEW ULM        MOSUNNY   79  70  73 NW10      29.96F
ST JAMES       CLOUDY    73  64  73 W10       29.98F
FAIRMONT       PTSUNNY   79  70  73 SW7       29.97F
GLENCOE        PTSUNNY   78  72  82 NW10      29.94F
FARIBAULT      CLOUDY    81  72  74 S8        29.96F
OWATONNA       CLOUDY    81  68  65 S12       29.97F
WASECA         CLOUDY    77  68  73 SW10      29.98F
ALBERT LEA     CLOUDY    81  68  65 S8        29.98F
$$
MNZ078>079-086>088-094>096-272000-
   Southeast Minnesota

CITY           SKY/WX    TMP DP  RH WIND       PRES   REMARKS
ROCHESTER      CLOUDY    77  69  76 S9        30.00F
RED WING       PTSUNNY   82  68  61 W3        29.94F
STANTON        CLOUDY    81  68  65 S8        29.95F
DODGE CENTER   CLOUDY    79  68  69 SW13      29.99F
WINONA         CLOUDY    81  66  61 S6        29.97F
AUSTIN         CLOUDY    79  66  65 SW8       30.00R
PRESTON        CLOUDY    78  65  63 S10       30.01F
$$
ABBREVIATIONS USED IN REMARKS
   TC - TEMPERATURES IN CELSIUS
  WCI - WIND CHILL INDEX
   HX - HEAT INDEX
  VSB - VISIBILITY
$$




USA.gov is the U.S. government's official web portal to all federal, state and local government web resources and services.